Temperature
15 16 16 16 13 11 13 14 14 14 15 15 15 15 14 14 15 15 14 14 14 14 14 14 13 13 13 13 13 13 13 13 13 13 13 13 14 14 14 13 13 13 13 13 13 13 13 13 13
15 15 16 15 12 13 13 13 14 14 15 15 14 14 14 13 14 14 14 14 14 14 14 14 13 13 13 13 13 13 13 13 13 13 13 13 13 13 13 13 13 13 13 13 13 13 13 13 13
15 15 15 11 11 12 15 14 13 14 15 15 14 13 13 13 13 14 14 14 13 13 13 13 13 13 13 13 13 13 13 13 13 13 13 13 13 13 13 13 13 13 13 13 13 13 13 13 13
15 15 14 11 12 12 13 13 13 13 14 14 13 12 13 13 13 14 14 13 13 13 13 13 13 13 13 13 13 13 13 13 13 13 13 13 13 13 13 13 13 13 13 13 13 13 13 13 13
15 14 11 11 12 12 12 12 13 13 13 13 13 12 12 13 13 14 13 13 13 13 13 13 13 12 12 12 12 12 12 12 12 13 13 13 12 12 13 13 13 13 13 13 13 13 13 13 13
14 11 10 11 12 12 11 12 13 12 12 13 12 12 12 13 13 13 13 13 13 12 12 12 12 12 12 12 12 12 12 12 12 12 12 12 12 12 12 12 12 13 12 13 13 13 13 13 12
12 9 10 11 11 12 12 13 12 11 11 12 13 11 12 13 13 13 13 12 12 12 12 12 12 12 12 12 12 12 12 12 12 12 12 12 12 12 12 12 12 12 12 12 12 12 12 12 12
13 9 11 10 11 12 12 12 12 12 12 13 13 12 12 13 13 12 12 12 12 12 12 12 12 12 12 12 12 12 12 12 12 12 12 12 12 11 12 12 12 12 12 12 12 12 12 12 12
13 9 10 11 11 12 11 11 12 12 12 12 12 12 12 13 12 12 12 12 12 11 11 11 11 11 11 11 11 11 11 11 11 11 11 11 11 11 11 11 11 11 12 12 12 12 12 12 12
11 9 10 11 11 11 11 11 11 11 10 11 12 12 12 12 12 12 12 12 12 12 11 11 11 11 11 11 11 11 11 11 11 11 11 11 11 11 11 11 11 11 11 11 11 11 11 11 11
10 9 10 10 11 11 10 10 11 10 9 10 11 12 12 12 12 12 12 12 12 11 11 11 11 11 11 11 11 11 11 11 11 10 10 10 10 10 11 11 11 11 11 11 11 11 11 11 11
9 9 10 10 11 11 10 10 10 10 11 11 12 12 12 11 11 12 11 11 11 11 11 11 11 10 10 10 10 10 10 10 10 10 10 10 10 10 10 10 10 10 10 10 10 11 11 10 10
9 9 10 10 10 10 10 9 9 9 11 11 11 11 11 11 11 11 11 11 11 11 10 10 10 10 10 10 10 10 10 10 10 10 9 9 9 9 10 10 10 10 10 10 10 10 10 10 10
9 9 9 9 9 9 9 8 8 9 10 11 11 11 11 11 11 11 11 11 11 10 10 10 10 10 10 10 10 9 9 9 9 9 9 9 9 9 9 9 9 9 9 9 9 10 10 10 9
9 8 8 9 9 9 9 8 7 9 10 10 10 10 10 10 10 10 10 10 10 10 10 10 10 9 9 9 9 9 9 9 9 9 9 9 8 8 8 9 9 9 9 9 9 9 9 9 9
8 8 8 8 8 8 9 8 8 9 9 8 9 9 9 10 10 10 10 10 10 10 10 9 9 9 9 9 9 9 9 8 8 8 8 8 8 8 8 8 8 8 8 8 8 8 8 8 8
7 7 7 8 8 7 7 7 7 8 8 7 8 8 9 9 9 9 9 9 9 9 9 9 9 9 9 8 8 8 8 8 8 8 8 8 8 8 8 8 8 8 8 8 8 8 8 8 8
7 7 7 7 7 7 6 6 7 7 7 7 7 8 8 8 9 9 9 9 9 9 9 9 8 8 8 8 8 8 8 8 7 7 7 7 7 7 7 7 7 7 7 7 7 7 7 7 7
7 7 7 7 7 6 6 6 7 7 6 6 6 7 7 8 8 8 8 8 8 8 8 8 8 8 8 8 7 7 8 7 7 7 7 7 7 7 7 7 7 7 7 7 7 7 7 7 7
7 6 6 6 6 6 5 5 6 6 6 6 6 7 7 7 8 8 8 8 8 8 8 8 7 7 7 7 7 7 7 7 7 7 7 7 6 6 6 6 6 6 6 6 6 6 6 6 6
6 6 6 6 6 5 5 5 6 6 6 6 7 7 7 7 8 8 8 8 8 7 7 7 7 7 7 7 6 6 6 6 6 6 6 6 6 6 6 6 6 6 6 6 6 6 6 6 6
6 6 6 6 5 4 5 5 6 6 5 5 6 6 7 7 7 7 7 8 7 7 7 7 7 7 6 6 6 6 6 6 6 6 6 6 6 6 5 5 5 5 5 5 5 5 5 5 5
6 6 5 5 4 4 4 4 5 5 5 6 5 6 7 7 7 7 7 7 7 7 7 6 6 6 6 6 6 6 6 5 5 5 5 5 5 5 5 5 5 5 5 4 4 4 4 4 4
5 5 4 3 3 4 4 4 5 4 5 6 6 6 6 7 7 7 6 6 6 6 6 6 6 6 6 6 6 5 5 5 5 5 5 5 5 5 5 4 4 4 4 4 4 4 4 4 4
5 5 4 4 3 4 4 4 4 5 5 5 5 6 6 6 6 6 6 6 6 6 6 6 6 6 6 5 5 5 5 5 5 5 4 4 4 4 4 4 4 4 4 4 3 3 3 3 3
4 5 5 5 4 4 3 3 5 5 5 5 6 6 6 6 6 6 6 6 6 6 5 5 5 5 5 5 5 5 5 4 4 4 4 4 4 4 4 4 3 3 3 3 3 3 3 3 3
4 4 4 3 3 3 3 3 4 5 5 4 5 5 5 6 6 6 6 6 5 5 5 5 5 5 5 5 5 4 4 4 4 4 3 3 3 3 3 3 3 3 3 3 3 3 3 3 2
4 3 2 3 4 4 4 3 4 5 5 5 4 4 5 5 5 5 5 5 5 5 5 5 5 5 5 4 4 4 4 4 4 3 3 3 3 3 3 3 3 3 3 2 2 2 2 2 2
3 3 3 2 2 3 4 5 5 4 5 4 3 4 5 5 5 5 5 5 5 4 4 4 4 4 4 4 4 4 3 3 3 3 3 3 3 2 2 2 2 2 2 2 2 2 2 2 2
3 3 2 3 2 1 2 4 5 4 3 3 3 4 5 5 5 5 4 4 4 4 4 4 4 4 4 4 3 3 3 3 3 3 2 2 2 2 2 2 2 2 2 2 2 1 1 1 1
Wind_Speed
7 4 3 4 5 4 4 5 3 2 2 0 1 2 5 4 3 3 0 2 4 5 7 10 11 10 10 9 8 8 7 7 7 7 7 7 7 7 7 7 7 7 7 7 7 7 8 8 8
2 2 5 5 4 2 5 4 4 3 2 2 3 3 3 1 1 1 0 1 4 6 8 9 10 10 9 9 8 7 7 7 6 6 7 7 7 7 7 7 7 7 7 7 7 7 7 7 7
2 4 5 4 4 6 5 3 4 2 1 2 2 2 1 0 0 2 2 4 5 6 7 8 10 9 9 9 8 7 6 6 6 6 6 6 6 6 6 6 6 6 6 6 7 6 6 6 6
3 5 5 4 5 6 4 2 1 0 1 2 3 2 1 2 1 2 3 6 6 5 6 8 10 9 8 8 7 6 6 5 5 5 5 5 5 5 5 5 6 6 6 6 6 5 5 5 5
4 4 4 1 5 4 3 3 1 1 1 1 3 2 1 3 2 4 6 6 7 5 5 6 9 9 8 7 7 6 6 5 5 4 4 4 5 5 5 5 5 5 5 5 5 5 4 4 4
4 4 3 4 5 4 3 2 2 1 0 0 3 2 1 2 2 4 5 6 6 5 5 5 7 8 8 7 7 6 6 5 4 4 4 3 3 3 4 4 4 4 4 4 4 4 4 4 4
5 4 4 4 3 3 2 0 2 1 1 2 3 3 1 1 1 4 5 5 5 5 5 4 4 5 6 6 6 5 5 4 4 3 3 3 3 2 2 3 3 3 3 4 4 4 4 3 3
5 5 2 3 3 3 2 1 1 2 2 1 3 4 3 2 3 5 5 5 4 3 3 3 4 4 4 4 4 5 4 4 3 3 3 3 3 2 2 2 2 2 3 3 4 4 4 3 3
4 4 3 4 5 3 1 1 2 1 1 1 0 1 1 5 6 6 4 3 2 2 2 2 3 3 3 3 3 4 4 3 3 2 3 3 4 3 3 2 2 2 3 3 4 4 5 4 4
4 4 6 3 3 2 1 0 0 2 2 2 2 2 3 6 7 7 6 5 4 3 2 1 2 2 3 3 3 3 3 3 3 2 3 3 4 4 3 3 3 3 3 3 4 4 5 4 4
3 5 3 2 2 1 1 1 0 2 2 4 4 2 3 5 5 6 6 6 5 4 3 2 2 2 3 2 2 2 3 3 2 2 3 3 3 3 3 3 3 3 3 3 3 4 4 3 3
2 2 2 2 1 0 2 1 1 3 5 3 3 3 5 5 7 7 7 5 4 3 4 3 2 2 2 3 2 2 2 2 1 2 2 2 2 2 2 2 2 2 2 2 2 3 3 3 2
1 2 1 1 1 0 0 2 2 4 5 2 0 2 4 5 5 4 4 4 3 4 3 3 3 3 3 2 2 1 1 1 1 2 2 2 2 1 1 1 1 2 1 1 1 2 2 2 2
2 1 1 1 1 1 1 3 2 6 3 1 1 2 3 5 5 3 3 4 4 4 4 3 3 3 3 2 2 2 2 1 1 1 2 2 2 2 1 0 0 1 1 1 1 1 1 1 1
1 2 3 1 1 1 1 4 4 5 0 1 2 3 3 4 3 4 5 5 5 4 4 3 3 2 3 3 3 2 2 2 1 1 1 2 2 2 1 1 1 1 1 0 1 1 1 1 1
3 2 2 3 0 0 2 7 5 2 1 3 4 4 4 5 5 5 4 4 4 3 4 4 3 3 3 2 2 2 2 2 2 1 1 2 3 3 2 1 1 2 1 0 0 0 1 1 1
2 1 3 4 1 0 2 7 6 3 3 5 5 5 5 5 5 5 4 4 3 4 4 4 3 3 3 2 2 2 2 2 1 1 1 2 2 3 2 1 1 1 0 0 1 1 1 1 2
4 3 3 4 3 0 4 9 11 5 5 7 6 6 5 5 6 4 3 3 2 2 3 3 3 3 3 2 1 1 1 1 1 1 1 2 2 2 2 1 1 1 1 0 0 1 1 1 2
3 3 5 5 3 2 6 11 13 8 6 8 7 6 6 6 5 3 3 2 2 2 2 3 3 3 3 2 2 1 2 2 1 1 2 2 2 2 2 2 1 1 1 1 1 1 1 1 1
3 3 5 4 2 2 6 11 11 8 7 8 8 7 7 5 3 3 2 2 3 4 4 4 4 4 4 3 2 1 1 1 2 1 2 2 2 2 3 3 2 2 1 1 1 0 1 1 0
4 5 5 4 4 2 4 9 7 5 5 5 6 6 6 6 6 5 4 3 3 4 4 4 4 4 4 3 2 1 1 1 0 1 1 2 2 2 2 3 2 2 2 2 2 2 2 1 1
4 4 4 3 1 4 1 6 8 5 6 6 7 6 6 6 5 5 4 4 4 5 4 4 4 4 3 3 3 3 2 3 3 2 2 2 2 2 2 3 2 2 2 2 3 2 2 2 2
4 1 1 2 2 3 2 4 9 4 6 7 7 7 6 5 5 5 5 6 5 4 3 3 3 3 3 3 4 4 3 3 1 1 2 2 2 2 2 2 2 2 2 2 3 2 3 2 3
3 3 3 3 2 4 5 5 8 5 7 6 5 5 5 5 5 4 4 4 3 3 3 3 3 3 3 4 4 5 5 3 2 2 2 2 2 2 2 2 2 2 2 3 3 3 3 3 3
3 3 3 4 2 6 3 5 9 8 6 6 6 6 5 4 4 4 4 3 3 3 3 3 4 4 4 4 4 5 5 5 5 4 3 3 2 2 3 3 2 2 3 3 3 2 3 3 3
4 5 5 4 5 5 2 7 8 6 5 5 5 5 4 4 4 5 5 5 4 4 4 4 4 4 4 4 5 4 4 4 4 4 3 4 3 3 3 3 3 3 3 3 2 2 2 2 3
4 4 3 3 1 4 6 7 9 5 4 3 3 4 5 5 5 5 4 4 4 4 5 5 5 4 4 4 4 4 4 4 4 3 3 3 3 3 3 3 3 3 3 3 2 2 2 2 3
3 6 4 3 3 5 6 6 5 5 5 4 4 5 6 5 4 4 3 3 3 4 4 4 4 5 4 4 4 3 4 4 4 3 3 3 3 2 2 3 3 3 3 3 3 2 2 3 3
4 3 3 3 3 4 5 7 5 6 5 5 6 6 6 5 5 4 4 3 3 3 3 3 3 3 3 4 4 4 4 4 4 3 4 3 3 3 3 3 3 3 3 3 3 3 3 4 3
5 6 7 5 5 4 4 8 4 4 4 4 6 5 5 5 4 4 4 3 3 3 3 3 3 4 4 4 4 4 3 3 4 4 4 3 3 3 3 3 3 3 3 3 3 4 4 4 4
Wind_Direction
351 18 62 56 58 57 237 243 222 252 236 300 44 117 142 148 160 182 324 140 125 137 147 149 145 142 138 134 128 120 112 105 98 94 91 87 84 78 74 72 68 67 68 70 71 72 71 70 68
4 44 55 61 104 196 257 240 227 228 209 115 54 67 79 53 15 93 132 157 127 130 134 141 143 141 138 133 126 122 115 107 100 95 90 86 83 78 73 71 67 64 66 66 65 70 69 69 68
61 55 83 84 144 195 228 232 224 270 50 106 71 51 108 245 245 187 218 146 119 120 128 140 142 141 138 135 129 125 118 111 103 98 90 87 84 77 73 69 67 64 65 64 63 67 68 67 68
78 54 61 94 216 226 228 263 232 266 34 61 112 64 347 347 226 203 134 128 118 115 122 141 140 139 136 134 130 126 119 115 106 99 89 87 84 77 73 68 67 62 61 61 57 59 64 62 63
61 83 84 212 242 252 256 273 218 161 184 60 122 128 283 348 44 112 126 128 124 113 110 135 139 138 135 133 131 129 122 113 103 97 89 86 87 78 72 67 64 60 59 54 49 50 59 59 55
61 76 119 219 244 266 272 263 157 146 205 86 132 141 252 3 92 127 127 124 121 119 105 118 143 140 137 132 131 128 120 110 102 93 82 78 75 80 77 68 59 54 52 45 42 45 57 58 51
110 115 178 208 238 272 277 198 148 174 190 235 168 146 275 301 160 130 120 113 106 109 106 96 108 130 140 136 133 129 122 111 98 86 73 65 57 71 77 64 57 54 51 46 42 37 50 56 47
124 118 168 215 213 252 300 53 114 142 233 310 143 157 227 223 142 113 103 100 105 98 102 101 94 99 105 125 139 134 124 114 94 78 70 58 43 42 54 49 47 49 50 48 41 35 36 44 44
94 96 203 216 200 238 332 44 359 15 67 14 118 210 236 132 124 114 105 99 110 117 103 106 100 93 95 107 128 128 128 120 95 74 78 60 45 35 35 42 48 46 50 47 38 31 30 39 44
96 169 220 221 191 205 281 132 303 37 12 335 321 352 89 128 142 151 159 172 180 185 179 151 132 111 96 101 106 104 108 105 95 82 79 67 52 47 49 49 44 40 44 44 35 31 31 42 46
141 190 220 253 243 200 228 292 261 145 261 243 249 246 149 150 165 180 187 190 196 194 186 183 170 141 124 110 105 100 97 96 98 99 94 83 65 53 49 44 31 28 36 41 32 34 36 39 40
153 236 218 259 292 190 203 219 257 207 229 251 234 192 171 180 192 199 200 202 190 186 200 193 174 158 150 137 132 128 109 101 105 122 119 106 80 59 47 40 29 33 36 37 34 36 29 25 17
183 253 287 285 331 249 163 241 238 255 262 281 155 145 181 197 213 221 215 200 184 189 199 197 181 177 166 151 148 140 159 161 159 152 152 143 129 134 68 51 33 16 18 27 16 22 18 9 1
212 236 287 300 304 311 209 285 258 267 268 235 155 197 211 211 215 216 217 207 198 197 200 194 187 182 163 166 178 183 179 162 144 153 176 170 161 160 173 164 11 340 343 345 353 336 327 325 344
73 25 343 314 265 275 89 302 240 259 239 270 258 240 233 236 225 220 219 213 203 200 195 189 189 167 165 178 186 183 180 163 165 195 190 188 184 176 176 197 243 281 288 345 18 358 1 323 330
52 46 309 299 345 315 142 263 271 286 209 267 273 264 252 251 240 238 231 218 203 192 189 193 190 182 185 185 193 184 172 166 186 216 215 206 201 189 175 203 241 256 247 151 297 312 332 322 316
39 240 249 292 297 92 186 256 280 295 257 265 264 260 257 261 260 251 238 222 204 196 190 188 190 190 199 197 192 187 172 176 192 207 230 229 216 200 180 203 248 233 208 218 249 320 277 292 303
217 219 244 257 288 236 246 262 278 280 257 261 261 263 262 256 255 252 243 226 202 195 184 186 193 192 193 179 156 152 158 197 196 215 233 238 224 209 196 197 228 219 193 231 242 270 302 269 277
178 206 250 261 277 260 255 268 277 278 265 261 258 254 253 256 260 254 244 218 184 179 180 191 194 191 170 167 176 195 224 233 228 232 238 238 235 214 200 214 206 217 207 230 234 249 299 309 295
191 234 261 285 314 259 279 279 274 266 252 244 244 243 246 255 265 255 244 215 197 198 199 197 201 197 191 194 193 198 201 219 226 239 248 244 237 229 211 204 208 219 212 234 251 241 222 280 314
220 213 231 255 329 337 315 297 273 271 256 255 245 238 238 232 236 241 236 229 213 209 209 211 208 201 198 185 147 91 72 50 95 266 251 252 237 230 226 218 205 210 206 221 238 230 195 223 255
242 222 217 240 307 294 355 290 280 273 283 263 255 248 245 239 233 233 231 233 225 222 215 209 207 200 194 175 170 170 187 216 226 234 238 260 242 230 227 219 209 215 217 219 231 229 220 205 232
212 113 164 203 195 290 250 241 283 294 276 269 256 252 249 240 228 226 225 225 229 225 213 209 201 199 193 185 183 185 204 221 226 230 223 243 258 241 231 225 217 222 229 228 227 227 223 218 216
153 78 59 53 89 270 227 203 277 247 238 263 273 267 257 241 229 227 226 220 231 224 210 202 198 206 201 193 192 195 206 212 211 222 222 240 258 255 248 242 233 233 234 235 232 225 221 221 219
107 100 19 347 324 252 213 218 252 250 240 244 267 279 274 243 229 230 228 225 230 226 212 206 203 214 209 201 205 208 210 209 212 218 221 228 244 256 248 247 243 246 240 239 232 227 230 220 217
180 156 172 217 237 274 257 237 254 255 264 269 271 279 283 266 247 242 233 226 225 224 211 207 210 217 212 207 216 216 211 211 221 223 223 225 232 237 237 235 242 244 238 235 224 232 231 220 215
156 191 168 148 197 268 263 274 295 266 278 284 298 303 289 278 266 258 251 233 224 226 218 211 211 216 217 214 218 218 216 216 223 226 228 232 238 241 237 234 236 245 241 230 217 226 232 217 209
166 150 123 154 204 256 277 266 253 267 269 285 291 288 289 295 287 279 268 249 242 233 227 217 213 215 218 214 216 225 222 222 221 222 229 235 240 239 230 235 235 238 238 227 217 221 226 217 219
148 152 157 162 188 198 263 268 225 226 245 267 273 276 277 280 280 278 277 273 274 261 232 224 220 218 222 221 218 222 225 221 216 222 231 230 231 227 226 230 232 234 235 229 218 219 220 215 223
188 188 170 185 226 205 233 268 262 228 257 265 275 281 282 277 276 275 274 277 274 256 238 229 224 224 226 220 215 219 221 215 217 226 234 228 225 226 228 224 232 235 234 230 221 226 225 218 220
Height
1486 1488 1490 1492 1497 1507 1507 1500 1496 1495 1494 1493 1493 1493 1494 1497 1500 1504 1500 1498 1500 1502 1504 1506 1508 1509 1511 1512 1513 1514 1515 1516 1517 1517 1518 1518 1518 1519 1519 1520 1520 1520 1520 1521 1521 1521 1522 1522 1522
1486 1488 1492 1493 1502 1511 1506 1497 1496 1493 1492 1492 1492 1493 1494 1495 1496 1497 1497 1498 1500 1502 1504 1506 1507 1509 1510 1512 1513 1514 1515 1516 1516 1517 1517 1518 1518 1518 1519 1519 1519 1520 1520 1520 1521 1521 1521 1521 1521
1487 1489 1492 1496 1504 1507 1499 1494 1493 1492 1492 1492 1493 1494 1495 1496 1496 1497 1497 1498 1500 1502 1504 1506 1507 1509 1510 1511 1512 1514 1515 1515 1516 1517 1517 1517 1518 1518 1518 1518 1519 1519 1519 1520 1520 1520 1520 1521 1521
1487 1490 1492 1500 1501 1498 1494 1492 1491 1492 1492 1492 1493 1495 1496 1497 1497 1497 1498 1499 1500 1502 1504 1505 1507 1508 1510 1511 1512 1513 1514 1515 1516 1516 1516 1517 1517 1517 1517 1517 1518 1518 1519 1519 1519 1519 1520 1520 1520
1487 1489 1497 1502 1499 1495 1492 1491 1491 1491 1492 1492 1493 1494 1495 1497 1496 1497 1498 1499 1500 1502 1504 1505 1507 1508 1509 1510 1511 1512 1513 1514 1514 1515 1515 1516 1516 1516 1516 1516 1517 1517 1518 1518 1518 1518 1519 1519 1519
1487 1490 1502 1504 1497 1493 1491 1490 1491 1491 1492 1492 1493 1494 1495 1496 1496 1497 1498 1499 1501 1502 1504 1505 1506 1508 1509 1509 1510 1511 1512 1513 1513 1514 1514 1514 1514 1515 1515 1515 1516 1516 1516 1517 1517 1517 1517 1518 1518
1488 1494 1499 1498 1497 1494 1491 1490 1490 1491 1491 1492 1492 1494 1494 1495 1496 1497 1498 1499 1501 1502 1503 1505 1506 1507 1508 1509 1510 1510 1511 1512 1512 1513 1513 1513 1513 1513 1514 1514 1514 1515 1515 1515 1515 1516 1516 1516 1517
1487 1492 1496 1498 1496 1493 1490 1489 1490 1491 1491 1492 1492 1493 1493 1494 1495 1496 1498 1499 1500 1501 1503 1504 1505 1506 1507 1508 1509 1509 1510 1510 1511 1511 1512 1512 1512 1512 1512 1513 1513 1513 1513 1513 1514 1514 1514 1515 1515
1487 1496 1498 1495 1494 1491 1489 1489 1490 1491 1491 1491 1492 1492 1493 1493 1494 1495 1496 1498 1499 1500 1501 1502 1504 1505 1506 1507 1507 1508 1509 1509 1509 1510 1510 1510 1510 1511 1511 1511 1511 1511 1512 1512 1512 1512 1512 1513 1513
1487 1496 1493 1490 1490 1489 1489 1489 1490 1490 1491 1491 1491 1491 1491 1492 1493 1493 1494 1495 1497 1498 1499 1501 1502 1503 1504 1505 1506 1506 1507 1507 1508 1508 1508 1508 1509 1509 1509 1509 1509 1510 1510 1510 1510 1510 1510 1511 1511
1487 1491 1489 1488 1488 1488 1489 1489 1489 1490 1491 1490 1489 1489 1490 1490 1491 1492 1493 1494 1495 1497 1498 1499 1500 1501 1502 1503 1504 1504 1505 1505 1506 1506 1506 1506 1507 1507 1507 1508 1508 1508 1508 1508 1508 1508 1508 1508 1509
1487 1488 1488 1488 1488 1488 1488 1488 1489 1488 1488 1488 1488 1488 1488 1489 1489 1490 1491 1492 1494 1495 1496 1497 1498 1499 1500 1501 1502 1502 1503 1503 1503 1504 1504 1504 1504 1505 1505 1506 1506 1506 1506 1506 1506 1506 1506 1506 1506
1487 1487 1487 1487 1487 1487 1487 1487 1487 1485 1485 1486 1486 1486 1486 1487 1488 1489 1490 1491 1492 1493 1494 1495 1495 1496 1497 1498 1499 1500 1500 1500 1501 1501 1501 1501 1502 1502 1503 1503 1503 1504 1504 1504 1504 1504 1504 1503 1503
1486 1486 1486 1486 1486 1486 1486 1486 1486 1482 1483 1483 1483 1484 1484 1485 1486 1487 1488 1488 1489 1490 1491 1492 1493 1494 1495 1495 1496 1497 1497 1498 1498 1498 1499 1499 1499 1500 1500 1501 1501 1501 1501 1501 1501 1501 1501 1500 1500
1486 1487 1486 1486 1485 1486 1486 1486 1484 1481 1482 1481 1481 1482 1482 1483 1484 1484 1485 1486 1487 1488 1489 1490 1490 1491 1492 1493 1493 1494 1494 1495 1495 1495 1496 1496 1497 1497 1497 1498 1498 1498 1498 1498 1498 1498 1498 1498 1497
1487 1490 1491 1486 1486 1485 1489 1487 1481 1481 1481 1480 1479 1479 1479 1480 1481 1482 1483 1483 1484 1485 1486 1487 1488 1488 1489 1490 1491 1491 1491 1492 1492 1493 1493 1493 1494 1494 1494 1495 1495 1495 1495 1495 1495 1495 1495 1495 1494
1491 1494 1492 1489 1486 1486 1488 1486 1480 1479 1479 1478 1477 1477 1476 1476 1477 1478 1479 1480 1481 1482 1483 1484 1485 1485 1486 1487 1488 1488 1489 1489 1489 1490 1490 1490 1491 1491 1491 1491 1491 1492 1492 1492 1492 1492 1492 1491 1491
1491 1493 1492 1490 1487 1487 1488 1484 1478 1477 1477 1475 1474 1473 1473 1472 1473 1475 1476 1477 1478 1479 1480 1481 1481 1482 1483 1484 1484 1485 1485 1486 1486 1486 1487 1487 1487 1488 1488 1488 1488 1488 1488 1489 1489 1489 1489 1489 1488
1487 1490 1491 1489 1487 1487 1486 1482 1476 1473 1473 1472 1470 1470 1469 1469 1470 1472 1473 1474 1475 1475 1476 1477 1478 1479 1479 1480 1480 1481 1481 1482 1483 1483 1484 1484 1484 1484 1484 1484 1484 1484 1484 1485 1485 1485 1485 1485 1485
1487 1490 1490 1488 1487 1487 1485 1480 1473 1470 1469 1467 1466 1465 1466 1466 1467 1468 1469 1470 1471 1472 1473 1474 1474 1475 1476 1477 1478 1478 1478 1479 1479 1480 1480 1480 1481 1481 1481 1480 1480 1481 1481 1481 1481 1481 1481 1481 1482
1487 1489 1488 1488 1487 1487 1487 1478 1471 1466 1464 1463 1462 1462 1462 1462 1463 1464 1465 1466 1467 1468 1469 1470 1471 1471 1472 1473 1474 1474 1475 1475 1475 1475 1476 1476 1477 1477 1477 1477 1477 1477 1477 1477 1477 1478 1478 1478 1478
1486 1484 1485 1487 1491 1493 1491 1487 1470 1466 1464 1461 1459 1458 1458 1458 1459 1460 1461 1463 1463 1464 1466 1467 1467 1468 1469 1470 1470 1470 1470 1470 1471 1472 1472 1473 1473 1473 1473 1473 1473 1473 1473 1473 1473 1473 1474 1474 1474
1483 1483 1485 1487 1491 1494 1492 1493 1473 1466 1462 1458 1455 1454 1454 1455 1456 1457 1458 1459 1460 1462 1462 1463 1464 1465 1465 1466 1466 1467 1467 1467 1468 1468 1468 1469 1469 1469 1469 1469 1469 1469 1469 1469 1469 1469 1470 1470 1470
1481 1485 1488 1492 1494 1494 1488 1491 1476 1467 1459 1454 1452 1452 1451 1452 1453 1454 1455 1456 1457 1459 1459 1460 1460 1461 1462 1462 1462 1463 1463 1464 1464 1464 1464 1465 1465 1465 1465 1465 1465 1465 1465 1466 1465 1466 1466 1466 1466
1482 1488 1495 1495 1499 1491 1486 1485 1471 1456 1454 1452 1451 1450 1449 1449 1450 1450 1451 1452 1453 1454 1455 1456 1457 1457 1458 1458 1458 1459 1459 1460 1460 1460 1461 1461 1461 1460 1461 1461 1461 1461 1461 1461 1461 1461 1461 1462 1462
1483 1484 1492 1491 1494 1490 1486 1482 1462 1452 1450 1449 1449 1448 1447 1447 1447 1447 1448 1449 1449 1450 1451 1452 1453 1453 1454 1454 1454 1455 1455 1456 1456 1457 1457 1457 1457 1457 1457 1457 1457 1457 1457 1457 1457 1457 1457 1457 1457
1482 1484 1484 1492 1496 1494 1484 1476 1461 1449 1448 1448 1447 1446 1445 1445 1444 1444 1444 1445 1446 1447 1448 1448 1449 1449 1450 1450 1450 1451 1451 1451 1452 1452 1453 1453 1453 1453 1453 1453 1453 1453 1453 1453 1452 1453 1453 1453 1453
1478 1481 1488 1490 1488 1485 1478 1475 1463 1450 1447 1446 1446 1445 1444 1443 1443 1442 1442 1442 1443 1443 1444 1445 1445 1446 1446 1446 1446 1447 1447 1447 1448 1448 1448 1449 1449 1449 1449 1449 1449 1449 1449 1448 1448 1448 1449 1449 1449
1480 1482 1483 1488 1488 1486 1481 1464 1449 1447 1445 1445 1444 1443 1442 1442 1442 1441 1441 1440 1440 1440 1441 1441 1441 1441 1442 1442 1442 1442 1443 1443 1443 1444 1445 1445 1445 1445 1445 1445 1445 1445 1444 1444 1444 1444 1445 1445 1445
1473 1475 1480 1483 1484 1488 1484 1465 1444 1444 1443 1442 1442 1441 1441 1440 1440 1439 1439 1438 1437 1437 1437 1437 1437 1437 1438 1438 1438 1438 1438 1439 1439 1440 1440 1441 1441 1441 1441 1441 1441 1441 1441 1441 1440 1440 1441 1441 1441